Starlink 11537

operational
NORAD ID: 62911 Int'l Des: 2025-027 Owner: SPXS Country: US Constellation: starlink
LEOCIRCULAR

Über Starlink 11537

Beschreibung wird geladen...

Live-Position

3D-Globus wird geladen...

Nächste Überflüge

Höhenverlauf

Altitude vs Time

uPlot chart will show altitude changes over time

Zweizeiliger Elementsatz

1 62911U 25027E 26034.49421528 .00283785 00000-0 21251-2 0 9991
2 62911 42.9984 193.8206 0001960 245.4282 114.6381 15.71011423 57819
Epoch: 3. Feb. 2026 • Age: 16 hours

Aktueller Status

Höhe 364.5 km
Geschwindigkeit 7.69 km/s
Subsatellitenpunkt -37.00°S, 133.24°W
Startdatum 8. Feb. 2025
Alter 0.9 years
Typ internet

Technische Details

Klassifizierung Payload
Masse 960.00 kg
Trockenmasse 910.00 kg
Gesamtmasse 960.00 kg
Länge 0.30 m
Durchmesser 4.10 m
Spannweite 29.00 m
Form Box + pan
Hersteller SPXS
Bus-Typ Starlink V2MD
Phasenstatus In Orbit
Besitzer/Staat SPXS/US

Große Konstellationen

Loading constellations...